Flag for Germany Weather past 2 weeks in Germering, Bavaria, Germany

Now
19 °F

Cold.


Feels Like: 8 °F
Forecast: 4 / 25 °F
Wind: 10 mph from North

Location: Landsberg

Current Time: Dec 28, 2014 at 7:05:16 PM

Latest Report: Dec 28, 2014 at 6:20 PM


Visibility: N/A

Pressure: 30.15 "Hg

Humidity: 79%

Dew point: 14 °F

Location of GermeringLocation

Historic Weather in Germering — Graph

°F

Germering temperature yesterday

Maximum temperature yesterday: 36 °F (at 3:20 PM)
Minimum temperature yesterday: 25 °F (at 12:20 AM)
Average temperature yesterday: 29 °F

Past Weeks' High & Low Weather Summary

 TemperatureHumidityPressure
High57 °F (Dec 23, 2:20 PM)100% (Dec 16, 5:20 AM)30.48 "Hg (Dec 16, 5:20 AM)
Low21 °F (Dec 28, 5:20 PM)21% (Dec 23, 2:20 PM)29.45 "Hg (Dec 27, 3:20 PM)
Average41 °F76%30.09 "Hg
* Reported Dec 13 5:20 PM — Dec 28 5:20 PM, Germering, Weather by CustomWeather, © 2014

Note: Actual official high and low records may vary slightly from our data, if they occured in-between our weather recording intervals... More about our weather records

Advertising

Germering weather history for previous 24 hours

 ConditionsComfort  
Time TempWeatherWind HumidityBarometerVisibility
5:20 PM
Dec 28
21 °FCold.14 mph86%30.12 "HgN/A
4:20 PM23 °FCold.18 mph86%30.07 "HgN/A
3:20 PM25 °FCold.15 mph86%29.98 "Hg3 mi
2:20 PM25 °FCold.13 mph93%29.95 "Hg1 mi
1:20 PM25 °FCold.15 mph86%29.89 "Hg1 mi
12:20 PM25 °FCold.15 mph93%29.86 "Hg1 mi
11:20 AM25 °FCold.15 mph93%29.80 "Hg1 mi
10:20 AM25 °FCold.13 mph93%29.77 "Hg1 mi
9:20 AM25 °FCold.13 mph100%29.71 "Hg2 mi
8:20 AM27 °FChilly.14 mph100%29.65 "Hg3 mi
7:20 AM28 °FChilly.8 mph93%29.62 "Hg0 mi
6:20 AM30 °FChilly.3 mph93%29.56 "HgN/A
5:20 AM30 °FChilly.8 mph93%29.53 "Hg2 mi
4:20 AM30 °FChilly.7 mph86%29.53 "HgN/A
3:20 AM30 °FChilly.6 mph93%29.50 "HgN/A
2:20 AM30 °FChilly.8 mph93%29.47 "Hg5 mi
1:20 AM32 °FChilly.10 mph87%29.47 "HgN/A
12:20 AM32 °FChilly.9 mph93%29.47 "HgN/A
11:20 PM
Dec 27
32 °FChilly.9 mph93%29.47 "Hg2 mi
10:20 PM32 °FChilly.10 mph93%29.47 "Hg2 mi
9:20 PM32 °FChilly.10 mph93%29.47 "Hg1 mi
8:20 PM32 °FChilly.13 mph93%29.45 "Hg1 mi
7:20 PM34 °FChilly.15 mph81%29.45 "Hg2 mi
Weather by CustomWeather, © 2014

See weather overviewHow to use our weather pages